Location: Goettingen
(51.5300°N, 9.9433°E)
Time: 10:35:54
(UTC+02:00)

ISS - Pass Details

Date: 25 May 2019
Orbit: 407 x 410 km, 51.6° (Epoch: 21 May)

Event Time Altitude Azimuth Distance (km) Brightness Sun altitude
Rises 23:20:47 0° 278° (W) 2,336 0.6 -13.1°
Reaches altitude 10° 23:22:52 10° 278° (W) 1,474 -0.5 -13.2°
Maximum altitude 23:26:10 83° 192° (SSW) 417 -3.9 -13.5°
Enters shadow 23:28:46 16° 103° (ESE) 1,185 -1.8 -13.7°
